Wetterdaten: Woche 22.11.10 - 28.11.10 (KW47)
Datum Zeit Temperatur Luftfeuchte Luftdruck Niederschlag Windrichtung Sonnenschein Solar Wind
22.11.2010 00:00 2,7 C 97 % 1000,8 hPa 0,2 l/m N 0,00 h 0 W/m 2,9 km/h (1 Bft)
22.11.2010 01:00 2,6 C 97 % 1000,1 hPa 0,8 l/m NO 0,00 h 0 W/m 3,5 km/h (1 Bft)
22.11.2010 02:00 2,3 C 97 % 999,9 hPa 0,8 l/m N 0,00 h 0 W/m 2,5 km/h (1 Bft)
22.11.2010 03:00 1,8 C 97 % 999,3 hPa 0,6 l/m N 0,00 h 0 W/m 3,3 km/h (1 Bft)
22.11.2010 04:00 1,3 C 97 % 999,0 hPa 0,6 l/m N 0,00 h 0 W/m 1,1 km/h (0 Bft)
22.11.2010 05:00 1,1 C 97 % 998,8 hPa 0,0 l/m N 0,00 h 0 W/m 0,8 km/h (0 Bft)
22.11.2010 06:00 0,8 C 97 % 998,7 hPa 0,0 l/m N 0,00 h 0 W/m 0,8 km/h (0 Bft)
22.11.2010 07:00 0,6 C 97 % 998,6 hPa 0,0 l/m N 0,00 h 0 W/m 0,1 km/h (0 Bft)
22.11.2010 08:00 0,6 C 97 % 998,9 hPa 0,0 l/m N 0,00 h 9 W/m 0,8 km/h (0 Bft)
22.11.2010 09:00 0,8 C 97 % 999,2 hPa 0,2 l/m W-SW 0,00 h 23 W/m 3,3 km/h (1 Bft)
22.11.2010 10:00 1,2 C 98 % 999,4 hPa 1,8 l/m W 0,00 h 73 W/m 6,7 km/h (2 Bft)
22.11.2010 11:00 1,8 C 98 % 999,5 hPa 2,0 l/m W 0,00 h 99 W/m 7,5 km/h (2 Bft)
22.11.2010 12:00 2,1 C 97 % 999,2 hPa 1,2 l/m SW 0,00 h 63 W/m 8,0 km/h (2 Bft)
22.11.2010 13:00 2,4 C 97 % 998,8 hPa 0,6 l/m W-NW 0,00 h 97 W/m 6,8 km/h (2 Bft)
22.11.2010 14:00 2,9 C 96 % 998,8 hPa 0,0 l/m W 0,00 h 39 W/m 8,3 km/h (2 Bft)
22.11.2010 15:00 2,8 C 95 % 999,1 hPa 0,0 l/m W 0,00 h 13 W/m 6,4 km/h (2 Bft)
22.11.2010 16:00 2,7 C 95 % 999,3 hPa 0,2 l/m W-NW 0,00 h 7 W/m 8,7 km/h (2 Bft)
22.11.2010 17:00 2,5 C 95 % 999,7 hPa 0,0 l/m W 0,00 h 0 W/m 7,4 km/h (2 Bft)
22.11.2010 18:00 2,1 C 95 % 1000,3 hPa 0,4 l/m SW 0,00 h 0 W/m 4,9 km/h (1 Bft)
22.11.2010 19:00 1,8 C 96 % 1000,5 hPa 0,4 l/m W-SW 0,00 h 0 W/m 5,9 km/h (2 Bft)
22.11.2010 20:00 1,7 C 96 % 1000,5 hPa 0,2 l/m SW 0,00 h 0 W/m 7,1 km/h (2 Bft)
22.11.2010 21:00 1,4 C 96 % 1000,8 hPa 0,8 l/m W-SW 0,00 h 0 W/m 7,3 km/h (2 Bft)
22.11.2010 22:00 1,3 C 97 % 1000,9 hPa 0,4 l/m W-SW 0,00 h 0 W/m 7,5 km/h (2 Bft)
22.11.2010 23:00 1,3 C 97 % 1001,1 hPa 0,4 l/m W-SW 0,00 h 0 W/m 8,2 km/h (2 Bft)
23.11.2010 00:00 1,3 C 97 % 1001,3 hPa 0,2 l/m W-SW 0,00 h 0 W/m 7,5 km/h (2 Bft)
23.11.2010 01:00 1,3 C 97 % 1001,5 hPa 0,2 l/m SW 0,00 h 0 W/m 8,2 km/h (2 Bft)
23.11.2010 02:00 1,3 C 97 % 1001,8 hPa 0,2 l/m SW 0,00 h 0 W/m 7,2 km/h (2 Bft)
23.11.2010 03:00 1,2 C 97 % 1002,1 hPa 1,0 l/m SW 0,00 h 0 W/m 5,6 km/h (1 Bft)
23.11.2010 04:00 0,7 C 97 % 1002,2 hPa 1,0 l/m SW 0,00 h 0 W/m 5,2 km/h (1 Bft)
23.11.2010 05:00 0,6 C 98 % 1002,5 hPa 0,6 l/m SW 0,00 h 0 W/m 4,8 km/h (1 Bft)
23.11.2010 06:00 0,7 C 98 % 1002,7 hPa 0,8 l/m SW 0,00 h 0 W/m 4,5 km/h (1 Bft)
23.11.2010 07:00 0,8 C 98 % 1003,0 hPa 0,2 l/m SW 0,00 h 6 W/m 4,5 km/h (1 Bft)
23.11.2010 08:00 0,9 C 98 % 1003,5 hPa 0,2 l/m W-SW 0,00 h 35 W/m 4,8 km/h (1 Bft)
23.11.2010 09:00 1,2 C 98 % 1003,8 hPa 0,0 l/m SW 0,00 h 51 W/m 6,4 km/h (2 Bft)
23.11.2010 10:00 1,3 C 98 % 1004,0 hPa 0,2 l/m SW 0,00 h 51 W/m 6,8 km/h (2 Bft)
23.11.2010 11:00 1,3 C 98 % 1004,1 hPa 0,2 l/m W 0,00 h 44 W/m 9,7 km/h (2 Bft)
23.11.2010 12:00 1,6 C 97 % 1004,2 hPa 0,0 l/m W 0,00 h 59 W/m 9,1 km/h (2 Bft)
23.11.2010 13:00 1,7 C 97 % 1004,4 hPa 0,0 l/m W 0,00 h 49 W/m 11,0 km/h (2 Bft)
23.11.2010 14:00 1,8 C 97 % 1004,7 hPa 0,0 l/m W 0,00 h 43 W/m 10,9 km/h (2 Bft)
23.11.2010 15:00 1,6 C 96 % 1005,1 hPa 0,0 l/m W-NW 0,00 h 15 W/m 8,8 km/h (2 Bft)
23.11.2010 16:00 1,3 C 95 % 1005,5 hPa 0,0 l/m W 0,00 h 10 W/m 6,4 km/h (2 Bft)
23.11.2010 17:00 0,8 C 93 % 1006,1 hPa 0,0 l/m W 0,00 h 0 W/m 7,9 km/h (2 Bft)
23.11.2010 18:00 0,4 C 94 % 1006,6 hPa 0,0 l/m W 0,00 h 0 W/m 7,0 km/h (2 Bft)
23.11.2010 19:00 0,2 C 94 % 1006,7 hPa 0,0 l/m W-SW 0,00 h 0 W/m 6,5 km/h (2 Bft)
23.11.2010 20:00 0,3 C 94 % 1006,9 hPa 0,0 l/m W-SW 0,00 h 0 W/m 9,3 km/h (2 Bft)
23.11.2010 21:00 0,3 C 94 % 1006,9 hPa 0,0 l/m W-SW 0,00 h 0 W/m 14,0 km/h (3 Bft)
23.11.2010 22:00 0,3 C 93 % 1007,1 hPa 0,0 l/m SW 0,00 h 0 W/m 12,4 km/h (3 Bft)
23.11.2010 23:00 0,4 C 93 % 1007,4 hPa 0,0 l/m SW 0,00 h 0 W/m 12,1 km/h (2 Bft)
24.11.2010 00:00 0,6 C 93 % 1007,4 hPa 0,0 l/m SW 0,00 h 0 W/m 15,0 km/h (3 Bft)
24.11.2010 01:00 0,6 C 94 % 1007,0 hPa 0,0 l/m W-SW 0,00 h 0 W/m 17,4 km/h (3 Bft)
24.11.2010 02:00 0,7 C 94 % 1007,0 hPa 0,0 l/m W-SW 0,00 h 0 W/m 16,9 km/h (3 Bft)
24.11.2010 03:00 0,8 C 94 % 1007,0 hPa 0,0 l/m W 0,00 h 0 W/m 13,7 km/h (3 Bft)
24.11.2010 04:00 0,8 C 93 % 1007,2 hPa 0,0 l/m W 0,00 h 0 W/m 17,6 km/h (3 Bft)
24.11.2010 05:00 0,8 C 93 % 1007,4 hPa 0,0 l/m W-SW 0,00 h 0 W/m 18,4 km/h (3 Bft)
24.11.2010 06:00 0,5 C 93 % 1007,6 hPa 0,0 l/m W-SW 0,00 h 0 W/m 12,1 km/h (2 Bft)
24.11.2010 07:00 0,1 C 94 % 1007,9 hPa 0,0 l/m SW 0,00 h 6 W/m 11,1 km/h (2 Bft)
24.11.2010 08:00 0,2 C 94 % 1008,5 hPa 0,0 l/m W-SW 0,08 h 45 W/m 14,1 km/h (3 Bft)
24.11.2010 09:00 0,9 C 94 % 1008,6 hPa 0,0 l/m W-SW 0,00 h 64 W/m 18,8 km/h (3 Bft)
24.11.2010 10:00 1,4 C 91 % 1008,8 hPa 0,0 l/m SW 0,00 h 88 W/m 18,1 km/h (3 Bft)
24.11.2010 11:00 1,8 C 90 % 1008,5 hPa 0,0 l/m W 0,00 h 138 W/m 17,8 km/h (3 Bft)
24.11.2010 12:00 2,1 C 90 % 1008,1 hPa 0,0 l/m SW 0,00 h 132 W/m 18,8 km/h (3 Bft)
24.11.2010 13:00 2,0 C 90 % 1008,2 hPa 0,0 l/m W-SW 0,00 h 60 W/m 18,5 km/h (3 Bft)
24.11.2010 14:00 2,1 C 91 % 1007,9 hPa 0,0 l/m W-SW 0,00 h 44 W/m 15,4 km/h (3 Bft)
24.11.2010 15:00 2,1 C 91 % 1007,9 hPa 0,0 l/m W-SW 0,00 h 40 W/m 15,6 km/h (3 Bft)
24.11.2010 16:00 1,8 C 91 % 1008,2 hPa 0,0 l/m W 0,00 h 8 W/m 15,3 km/h (3 Bft)
24.11.2010 17:00 1,7 C 92 % 1008,1 hPa 0,0 l/m W-SW 0,00 h 0 W/m 14,4 km/h (3 Bft)
24.11.2010 18:00 1,5 C 91 % 1008,1 hPa 0,0 l/m W-SW 0,00 h 0 W/m 15,2 km/h (3 Bft)
24.11.2010 19:00 1,3 C 90 % 1008,1 hPa 0,0 l/m SW 0,00 h 0 W/m 13,4 km/h (3 Bft)
24.11.2010 20:00 1,3 C 90 % 1008,1 hPa 0,0 l/m W-SW 0,00 h 0 W/m 12,5 km/h (3 Bft)
24.11.2010 21:00 1,3 C 91 % 1008,1 hPa 0,0 l/m W-SW 0,00 h 0 W/m 14,2 km/h (3 Bft)
24.11.2010 22:00 1,4 C 92 % 1008,1 hPa 0,0 l/m W-SW 0,00 h 0 W/m 13,2 km/h (3 Bft)
24.11.2010 23:00 1,5 C 92 % 1008,0 hPa 0,0 l/m W-SW 0,00 h 0 W/m 11,8 km/h (2 Bft)
25.11.2010 00:00 1,3 C 91 % 1008,0 hPa 0,0 l/m W-SW 0,00 h 0 W/m 9,7 km/h (2 Bft)
25.11.2010 01:00 0,9 C 92 % 1007,8 hPa 0,0 l/m W-SW 0,00 h 0 W/m 10,5 km/h (2 Bft)
25.11.2010 02:00 0,7 C 92 % 1007,8 hPa 0,0 l/m W-SW 0,00 h 0 W/m 12,5 km/h (3 Bft)
25.11.2010 03:00 0,5 C 91 % 1007,7 hPa 0,0 l/m SW 0,00 h 0 W/m 10,9 km/h (2 Bft)
25.11.2010 04:00 0,3 C 91 % 1007,4 hPa 0,0 l/m W-SW 0,00 h 0 W/m 12,2 km/h (2 Bft)
25.11.2010 05:00 0,2 C 91 % 1006,9 hPa 0,0 l/m SW 0,00 h 0 W/m 5,1 km/h (1 Bft)
25.11.2010 06:00 -0,3 C 94 % 1006,6 hPa 0,0 l/m SW 0,00 h 0 W/m 6,8 km/h (2 Bft)
25.11.2010 07:00 -0,1 C 94 % 1006,2 hPa 0,0 l/m SW 0,00 h 9 W/m 13,7 km/h (3 Bft)
25.11.2010 08:00 0,1 C 93 % 1005,9 hPa 0,0 l/m S-SW 0,00 h 29 W/m 15,2 km/h (3 Bft)
25.11.2010 09:00 0,6 C 91 % 1005,6 hPa 0,0 l/m SW 0,00 h 91 W/m 12,5 km/h (3 Bft)
25.11.2010 10:00 1,9 C 85 % 1005,3 hPa 0,0 l/m SW 0,00 h 139 W/m 16,0 km/h (3 Bft)
25.11.2010 11:00 2,6 C 80 % 1004,6 hPa 0,0 l/m W-SW 0,25 h 171 W/m 18,2 km/h (3 Bft)
25.11.2010 12:00 3,0 C 77 % 1004,0 hPa 0,0 l/m SW 0,25 h 177 W/m 16,9 km/h (3 Bft)
25.11.2010 13:00 3,1 C 78 % 1003,2 hPa 0,0 l/m SW 0,25 h 159 W/m 18,9 km/h (3 Bft)
25.11.2010 14:00 3,1 C 77 % 1002,4 hPa 0,0 l/m W-SW 0,08 h 105 W/m 14,5 km/h (3 Bft)
25.11.2010 15:00 2,8 C 80 % 1002,0 hPa 0,0 l/m SW 0,00 h 43 W/m 9,8 km/h (2 Bft)
25.11.2010 16:00 2,3 C 82 % 1001,4 hPa 0,0 l/m SW 0,00 h 12 W/m 5,1 km/h (1 Bft)
25.11.2010 17:00 1,5 C 83 % 1000,9 hPa 0,0 l/m N 0,00 h 0 W/m 1,5 km/h (1 Bft)
25.11.2010 18:00 0,8 C 87 % 1000,3 hPa 0,0 l/m SW 0,00 h 0 W/m 3,6 km/h (1 Bft)
25.11.2010 19:00 0,5 C 88 % 1000,0 hPa 0,0 l/m N 0,00 h 0 W/m 2,0 km/h (1 Bft)
25.11.2010 20:00 0,4 C 88 % 999,6 hPa 0,0 l/m N 0,00 h 0 W/m 0,3 km/h (0 Bft)
25.11.2010 21:00 0,2 C 89 % 999,4 hPa 0,0 l/m N 0,00 h 0 W/m 0,1 km/h (0 Bft)
25.11.2010 22:00 0,1 C 90 % 999,0 hPa 0,0 l/m N 0,00 h 0 W/m 1,2 km/h (1 Bft)
25.11.2010 23:00 -0,2 C 91 % 998,7 hPa 0,0 l/m NW 0,00 h 0 W/m 3,9 km/h (1 Bft)
26.11.2010 00:00 -0,0 C 93 % 998,6 hPa 0,0 l/m NW 0,00 h 0 W/m 4,3 km/h (1 Bft)
26.11.2010 01:00 0,3 C 93 % 998,9 hPa 0,0 l/m SW 0,00 h 0 W/m 3,9 km/h (1 Bft)
26.11.2010 02:00 0,3 C 94 % 999,3 hPa 0,8 l/m N 0,00 h 0 W/m 1,1 km/h (0 Bft)
26.11.2010 03:00 -0,0 C 95 % 999,0 hPa 0,2 l/m S-SW 0,00 h 0 W/m 3,2 km/h (1 Bft)
26.11.2010 04:00 -0,4 C 95 % 999,8 hPa 0,4 l/m N-NW 0,00 h 0 W/m 12,9 km/h (3 Bft)
26.11.2010 05:00 -0,9 C 95 % 1000,7 hPa 0,4 l/m W-NW 0,00 h 0 W/m 9,9 km/h (2 Bft)
26.11.2010 06:00 -1,1 C 94 % 1001,7 hPa 0,0 l/m NW 0,00 h 0 W/m 8,3 km/h (2 Bft)
26.11.2010 07:00 -1,2 C 93 % 1002,5 hPa 0,0 l/m W 0,00 h 0 W/m 4,5 km/h (1 Bft)
26.11.2010 08:00 -1,2 C 93 % 1003,3 hPa 0,4 l/m N 0,00 h 6 W/m 1,6 km/h (1 Bft)
26.11.2010 09:00 -0,9 C 93 % 1003,6 hPa 0,0 l/m W-NW 0,00 h 16 W/m 9,1 km/h (2 Bft)
26.11.2010 10:00 -0,6 C 89 % 1003,8 hPa 0,0 l/m W-NW 0,00 h 27 W/m 6,4 km/h (2 Bft)
26.11.2010 11:00 -0,1 C 85 % 1003,8 hPa 0,0 l/m W-NW 0,00 h 42 W/m 9,5 km/h (2 Bft)
26.11.2010 12:00 0,3 C 83 % 1003,8 hPa 0,0 l/m W 0,00 h 68 W/m 8,8 km/h (2 Bft)
26.11.2010 13:00 0,4 C 81 % 1003,6 hPa 0,0 l/m W-NW 0,08 h 149 W/m 12,4 km/h (3 Bft)
26.11.2010 14:00 0,4 C 82 % 1003,4 hPa 0,0 l/m SW 0,00 h 118 W/m 9,8 km/h (2 Bft)
26.11.2010 15:00 -0,3 C 85 % 1003,6 hPa 0,0 l/m W-SW 0,00 h 53 W/m 7,6 km/h (2 Bft)
26.11.2010 16:00 -0,8 C 87 % 1003,9 hPa 0,0 l/m W-SW 0,08 h 13 W/m 8,4 km/h (2 Bft)
26.11.2010 17:00 -1,1 C 89 % 1004,3 hPa 0,0 l/m SW 0,00 h 0 W/m 7,2 km/h (2 Bft)
26.11.2010 18:00 -1,3 C 90 % 1004,5 hPa 0,0 l/m W-SW 0,00 h 0 W/m 7,6 km/h (2 Bft)
26.11.2010 19:00 -1,7 C 92 % 1004,5 hPa 0,8 l/m W-SW 0,00 h 0 W/m 6,1 km/h (2 Bft)
26.11.2010 20:00 -1,9 C 92 % 1004,9 hPa 0,2 l/m W-SW 0,00 h 0 W/m 8,6 km/h (2 Bft)
26.11.2010 21:00 -2,4 C 91 % 1005,4 hPa 0,0 l/m SW 0,00 h 0 W/m 5,1 km/h (1 Bft)
26.11.2010 22:00 -2,5 C 92 % 1005,5 hPa 0,0 l/m W-SW 0,00 h 0 W/m 7,6 km/h (2 Bft)
26.11.2010 23:00 -2,2 C 92 % 1005,7 hPa 0,0 l/m W-SW 0,00 h 0 W/m 7,8 km/h (2 Bft)
27.11.2010 00:00 -2,2 C 92 % 1005,8 hPa 0,0 l/m W-SW 0,00 h 0 W/m 6,4 km/h (2 Bft)
27.11.2010 01:00 -2,1 C 92 % 1006,0 hPa 0,0 l/m W-SW 0,00 h 0 W/m 7,4 km/h (2 Bft)
27.11.2010 02:00 -2,2 C 90 % 1006,2 hPa 0,0 l/m W-SW 0,00 h 0 W/m 7,8 km/h (2 Bft)
27.11.2010 03:00 -2,6 C 89 % 1006,1 hPa 0,0 l/m N 0,00 h 0 W/m 2,0 km/h (1 Bft)
27.11.2010 04:00 -2,9 C 91 % 1006,0 hPa 0,0 l/m N 0,00 h 0 W/m 0,9 km/h (0 Bft)
27.11.2010 05:00 -2,8 C 92 % 1005,9 hPa 0,0 l/m N 0,00 h 0 W/m 2,0 km/h (1 Bft)
27.11.2010 06:00 -3,3 C 91 % 1005,4 hPa 0,0 l/m N 0,00 h 0 W/m 0,3 km/h (0 Bft)
27.11.2010 07:00 -4,8 C 90 % 1005,1 hPa 0,0 l/m N 0,00 h 5 W/m 0,0 km/h (0 Bft)
27.11.2010 08:00 -5,5 C 92 % 1005,4 hPa 0,0 l/m N 0,00 h 18 W/m 0,1 km/h (0 Bft)
27.11.2010 09:00 -4,8 C 94 % 1005,1 hPa 0,0 l/m O-NO 0,00 h 30 W/m 1,2 km/h (1 Bft)
27.11.2010 10:00 -3,3 C 94 % 1005,0 hPa 0,0 l/m O-NO 0,00 h 42 W/m 4,5 km/h (1 Bft)
27.11.2010 11:00 -1,9 C 89 % 1004,7 hPa 0,0 l/m O-NO 0,00 h 104 W/m 6,0 km/h (2 Bft)
27.11.2010 12:00 -1,1 C 84 % 1004,3 hPa 0,0 l/m O 0,00 h 106 W/m 4,4 km/h (1 Bft)
27.11.2010 13:00 -0,7 C 81 % 1003,8 hPa 0,0 l/m O-SO 0,00 h 103 W/m 5,6 km/h (1 Bft)
27.11.2010 14:00 -0,8 C 80 % 1003,5 hPa 0,0 l/m O 0,00 h 65 W/m 3,6 km/h (1 Bft)
27.11.2010 15:00 -0,8 C 81 % 1003,5 hPa 0,0 l/m N 0,00 h 30 W/m 2,8 km/h (1 Bft)
27.11.2010 16:00 -1,0 C 82 % 1003,5 hPa 0,0 l/m N 0,00 h 9 W/m 2,1 km/h (1 Bft)
27.11.2010 17:00 -1,5 C 87 % 1003,7 hPa 0,0 l/m N 0,00 h 0 W/m 2,5 km/h (1 Bft)
27.11.2010 18:00 -1,7 C 90 % 1003,6 hPa 0,0 l/m N-NO 0,00 h 0 W/m 2,9 km/h (1 Bft)
27.11.2010 19:00 -1,8 C 91 % 1003,8 hPa 0,0 l/m N 0,00 h 0 W/m 3,9 km/h (1 Bft)
27.11.2010 20:00 -1,9 C 92 % 1004,3 hPa 0,0 l/m N 0,00 h 0 W/m 2,8 km/h (1 Bft)
27.11.2010 21:00 -2,1 C 92 % 1004,3 hPa 0,0 l/m N 0,00 h 0 W/m 0,5 km/h (0 Bft)
27.11.2010 22:00 -2,1 C 93 % 1004,6 hPa 0,0 l/m N 0,00 h 0 W/m 2,1 km/h (1 Bft)
27.11.2010 23:00 -1,9 C 93 % 1005,0 hPa 0,0 l/m N 0,00 h 0 W/m 0,0 km/h (0 Bft)
28.11.2010 00:00 -1,8 C 93 % 1005,2 hPa 0,0 l/m SW 0,00 h 0 W/m 2,4 km/h (1 Bft)
28.11.2010 01:00 -2,1 C 93 % 1005,1 hPa 0,0 l/m SW 0,00 h 0 W/m 5,9 km/h (2 Bft)
28.11.2010 02:00 -2,4 C 94 % 1005,1 hPa 0,0 l/m S 0,00 h 0 W/m 2,3 km/h (1 Bft)
28.11.2010 03:00 -2,3 C 94 % 1005,1 hPa 0,0 l/m N 0,00 h 0 W/m 1,5 km/h (1 Bft)
28.11.2010 04:00 -2,6 C 94 % 1005,0 hPa 0,0 l/m N 0,00 h 0 W/m 0,0 km/h (0 Bft)
28.11.2010 05:00 -2,9 C 94 % 1004,8 hPa 0,0 l/m N 0,00 h 0 W/m 0,0 km/h (0 Bft)
28.11.2010 06:00 -3,1 C 94 % 1004,6 hPa 0,0 l/m N 0,00 h 0 W/m 0,0 km/h (0 Bft)
28.11.2010 07:00 -3,0 C 95 % 1004,4 hPa 0,0 l/m N-NW 0,00 h 5 W/m 1,7 km/h (1 Bft)
28.11.2010 08:00 -2,8 C 95 % 1004,3 hPa 0,0 l/m N-NW 0,17 h 41 W/m 6,0 km/h (2 Bft)
28.11.2010 09:00 -2,2 C 95 % 1004,5 hPa 0,0 l/m N 0,00 h 91 W/m 6,3 km/h (2 Bft)
28.11.2010 10:00 -1,4 C 94 % 1004,3 hPa 0,0 l/m N 0,00 h 123 W/m 4,5 km/h (1 Bft)
28.11.2010 11:00 -0,5 C 87 % 1003,6 hPa 0,0 l/m N-NO 0,17 h 181 W/m 5,9 km/h (2 Bft)
28.11.2010 12:00 0,3 C 84 % 1002,7 hPa 0,0 l/m N-NO 0,75 h 224 W/m 10,9 km/h (2 Bft)
28.11.2010 13:00 0,5 C 83 % 1001,8 hPa 0,0 l/m NO 0,17 h 163 W/m 11,0 km/h (2 Bft)
28.11.2010 14:00 0,2 C 84 % 1001,1 hPa 0,0 l/m O-NO 0,00 h 99 W/m 11,2 km/h (2 Bft)
28.11.2010 15:00 -0,0 C 85 % 1000,5 hPa 0,0 l/m NO 0,00 h 54 W/m 8,8 km/h (2 Bft)
28.11.2010 16:00 -0,3 C 85 % 1000,5 hPa 0,0 l/m O-NO 0,08 h 12 W/m 6,0 km/h (2 Bft)
28.11.2010 17:00 -0,8 C 87 % 1000,5 hPa 0,0 l/m N-NO 0,00 h 0 W/m 6,3 km/h (2 Bft)
28.11.2010 18:00 -1,3 C 89 % 1000,3 hPa 0,0 l/m N-NO 0,00 h 0 W/m 8,3 km/h (2 Bft)
28.11.2010 19:00 -1,6 C 90 % 1000,1 hPa 0,0 l/m N-NO 0,00 h 0 W/m 7,9 km/h (2 Bft)
28.11.2010 20:00 -1,9 C 91 % 999,7 hPa 0,0 l/m NO 0,00 h 0 W/m 9,4 km/h (2 Bft)
28.11.2010 21:00 -2,1 C 92 % 999,2 hPa 0,0 l/m NO 0,00 h 0 W/m 11,0 km/h (2 Bft)
28.11.2010 22:00 -2,1 C 92 % 999,0 hPa 0,0 l/m NO 0,00 h 0 W/m 7,8 km/h (2 Bft)
28.11.2010 23:00 -2,0 C 93 % 999,4 hPa 0,0 l/m N-NO 0,00 h 0 W/m 4,4 km/h (1 Bft)
Min-Datum _ 27.11.10 25.11.10 26.11.10 - - - - 22.11.10
_ Min-Zeit 08:25 12:10 00:55 - - - - 00:20
Minimum _ -5,6 C 76 % 998,4 hPa - - - - 0,0 km/h (0 Bft)
Max-Datum _ 25.11.10 22.11.10 24.11.10 22.11.10 - 24.11.10 25.11.10 24.11.10
_ Max-Zeit 11:50 16:55 10:55 11:00 - 08:40 11:05 05:25
Maximum _ 3,2 C 100 % 1008,9 hPa 2,0 l/m - 0,08 h 276 W/m 29,0 km/h
W-SW (5 Bft)
Durchschnitt _ 0,1 C 92 % 1003,7 hPa #19,6 l/m W-SW #2:25 h 64 W/m 7,6 km/h (2 Bft)